www.pogodaiklimat.ru

Погода и климат >> Архив погоды >> Испания >> Мадрид Буэн-Ретиро


ПОГОДА в Мадриде Буэн-Ретиро

  • Прогноз погоды в Мадриде Буэн-Ретиро
  • Монитор погоды в Мадриде Буэн-Ретиро

АРХИВ ПОГОДЫ в Мадриде Буэн-Ретиро

Время (UTC), дата Ветер
(напр.,м/с)
 
Видим.   Явления Облачность Т
(С)
Тd
(С)
f
(%)
Тe
(С)
Тes
(С)
Комфортность P
(гПа)
Po
(гПа)
Тmin
(С)
Tmax
(С)
R
(мм)
R24
(мм)
S
(см)
10 17.06 ЮВ 1-2
{2}
н/о н/о +26.4 +11.7 40 +28 +28 жарко 1013.8 940.4
11 17.06 ЮЗ 1-2
{2}
н/о н/о +28.1 +10.8 34 +29 +29 жарко 1013.2 940.3
12 17.06 ЮЗ 1-3
{3}
н/о н/о +29.1 +10.3 31 +29 +29 жарко 1012.4 939.7
13 17.06 Ю 1-3
{4}
н/о н/о +30.7 +10.0 28 +30 +30 жарко 1011.3 939.1
14 17.06 Ю 1-3
{4}
н/о н/о +31.4 +10.2 27 +31 +31 жарко 1010.3 938.3
16 17.06 ЮЗ 1-2
{5}
н/о н/о +29.5 +9.6 29 +29 +29 жарко 1009.4 937.0
17 17.06 ЮЗ 1-3
{4}
н/о н/о +29.6 +9.7 29 +29 +29 жарко 1008.7 936.4
18 17.06 З 1-3
{3}
н/о н/о +28.4 +8.1 28 +28 +28 жарко 1008.9 936.3 +31.7
19 17.06 З 1-3
{3}
н/о н/о +28.3 +9.0 30 +28 +28 жарко 1008.9 936.3
20 17.06 З 2-3
{4}
н/о н/о +27.0 +8.0 30 +27 +27 жарко 1009.4 936.4
22 17.06 СЗ 1-1
{2}
н/о н/о +25.0 +6.7 31 +25 +25 комфорт 1010.5 936.9
23 17.06 штиль 0-1
{1}
н/о н/о +23.8 +7.0 34 +24 +24 комфорт 1010.8 936.9
00 18.06 ЮЗ 1-2
{2}
н/о н/о +22.9 +6.5 35 +24 +24 комфорт 1011.0 936.9
01 18.06 штиль 0-1
{2}
н/о н/о +22.4 +7.4 38 +23 +23 комфорт 1010.8 936.6
02 18.06 Ю 1-1
{1}
н/о н/о +21.7 +7.1 39 +23 +23 комфорт 1010.4 936.1
04 18.06 З 1-2
{3}
н/о н/о +20.2 +6.1 40 +23 +23 комфорт 1011.2 936.4
05 18.06 штиль 0-1
{2}
н/о н/о +19.4 +5.5 40 +20 +20 1011.1 936.1
06 18.06 Ю 1 н/о н/о +18.9 +5.6 42 +21 +21 комфорт 1012.1 936.9 +18.7 +28.9
07 18.06 З 2-3
{3}
н/о н/о +21.2 +7.0 40 +22 +22 комфорт 1011.0 936.5
08 18.06 ЮЗ 1-3
{3}
н/о н/о +23.2 +7.7 37 +24 +24 комфорт 1011.8 937.7
10 18.06 ЮЗ 1-3
{4}
н/о н/о +26.5 +8.9 33 +27 +27 жарко 1011.2 938.0
11 18.06 З 2-4
{4}
н/о н/о +27.3 +8.3 30 +27 +27 жарко 1010.9 937.9
12 18.06 ЮЗ 2-4
{5}
н/о н/о +29.4 +9.0 28 +29 +29 жарко 1009.7 937.3
13 18.06 ЮЗ 3-5
{5}
н/о н/о +29.8 +7.7 25 +29 +29 жарко 1009.3 937.0
14 18.06 ЮЗ 2-5
{6}
н/о н/о +30.7 +8.4 25 +30 +30 жарко 1008.7 936.6
16 18.06 З 3-5
{5}
н/о н/о +27.8 +7.6 28 +27 +27 жарко 1008.7 935.9
17 18.06 З 3-6
{6}
н/о н/о +27.9 +7.1 27 +27 +27 жарко 1008.6 935.9
10 19.06 ЮЗ 2-5
{5}
н/о н/о +23.1 +13.3 54 +26 +26 жарко 1012.6 938.6
12 19.06 ЮЗ 3-5
{6}
н/о н/о +25.4 +13.6 48 +28 +28 жарко 1011.9 938.5
16 19.06 ЮЗ 2-4
{5}
н/о н/о +26.0 +12.8 44 +28 +28 жарко 1010.2 937.0
17 19.06 ЮЗ 2-4
{5}
н/о н/о +26.0 +12.8 44 +28 +28 жарко 1009.7 936.6
18 19.06 ЮЗ 2-4
{5}
н/о н/о +25.5 +12.3 44 +27 +27 жарко 1010.0 936.7 +26.7
19 19.06 З 1-2
{4}
н/о н/о +24.5 +11.8 45 +26 +26 жарко 1010.5 936.9
20 19.06 З 1-3
{4}
н/о н/о +23.4 +11.4 47 +26 +26 жарко 1011.0 937.1
22 19.06 З 1-4
{4}
н/о н/о +21.6 +10.4 49 +23 +23 комфорт 1011.5 937.1
23 19.06 З 1-2
{3}
н/о н/о +20.5 +10.6 53 +23 +23 комфорт 1012.0 937.3
00 20.06 СЗ 1-2
{2}
н/о н/о +19.9 +10.6 55 +22 +22 комфорт 1011.4 936.6
01 20.06 СЗ 1-2
{2}
н/о н/о +18.7 +10.3 58 +20 +20 1011.4 936.3
02 20.06 С 1-1
{2}
н/о н/о +18.3 +10.6 61 +20 +20 1011.6 936.4
04 20.06 СВ 1-2
{2}
н/о н/о +18.1 +9.9 59 +19 +19 1011.6 936.4
05 20.06 СВ 1-2
{2}
н/о н/о +17.8 +9.9 60 +19 +19 1011.9 936.6
06 20.06 СВ 1 н/о н/о +17.7 +10.0 61 +19 +19 1012.2 936.8 +17.1 +25.3
07 20.06 В 1-2
{2}
н/о н/о +19.0 +10.8 59 +21 +21 комфорт 1012.1 937.1
08 20.06 ЮВ 1-2
{2}
н/о н/о +20.9 +11.6 55 +24 +24 комфорт 1011.2 936.7
10 20.06 ЮЗ 1-2
{2}
н/о н/о +23.6 +12.5 50 +26 +26 жарко 1010.9 937.1
11 20.06 ЮЗ 1-3
{3}
н/о н/о +25.3 +13.2 47 +27 +27 жарко 1010.3 937.0
12 20.06 ЮЗ 1-3
{4}
н/о н/о +26.2 +13.4 45 +28 +28 жарко 1009.8 936.7
13 20.06 ЮЗ 2-4
{4}
н/о н/о +26.8 +12.8 42 +28 +28 жарко 1009.4 936.5
14 20.06 ЮЗ 1-4
{4}
н/о н/о +28.1 +13.3 40 +30 +30 жарко 1008.5 936.0
16 20.06 З 2-4
{5}
н/о н/о +26.8 +13.2 43 +29 +29 жарко 1007.5 934.7
17 20.06 З 2-5
{5}
н/о н/о +26.8 +12.4 41 +28 +28 жарко 1007.3 934.5
18 20.06 З 2-4
{5}
н/о н/о +25.8 +11.9 42 +27 +27 жарко 1007.4 934.4 +28.1
19 20.06 З 2-4
{4}
н/о н/о +24.9 +11.4 43 +26 +26 жарко 1007.9 934.6
20 20.06 З 2-5
{5}
н/о н/о +23.8 +11.1 45 +25 +25 комфорт 1008.3 934.7
22 20.06 СЗ 1-2
{4}
н/о н/о +21.7 +10.8 50 +24 +24 комфорт 1010.1 935.9
23 20.06 З 1-2
{3}
н/о н/о +20.6 +10.6 53 +23 +23 комфорт 1010.6 936.1
00 21.06 СЗ 1-2
{2}
н/о н/о +20.3 +10.4 53 +23 +23 комфорт 1010.7 936.1
01 21.06 В 1-3
{3}
н/о н/о +20.1 +10.8 55 +23 +23 комфорт 1011.3 936.6
02 21.06 СВ 1-3
{3}
н/о н/о +19.4 +10.9 58 +22 +22 комфорт 1010.4 935.6
04 21.06 СВ 2-4
{4}
н/о н/о +18.0 +10.9 63 +19 +19 1011.7 936.5
05 21.06 СВ 2-3
{4}
н/о н/о +17.8 +10.6 63 +19 +19 1012.1 936.8
06 21.06 СВ 2 н/о н/о +18.0 +11.1 64 +19 +19 1012.5 937.2 +17.8 +25.9
07 21.06 СВ 1-3
{4}
н/о н/о +19.2 +12.0 63 +21 +21 комфорт 1012.5 937.5
08 21.06 СВ 1-2
{3}
н/о н/о +20.5 +12.7 61 +24 +24 комфорт 1012.5 937.9
10 21.06 В 1-2
{2}
н/о н/о +25.2 +14.0 50 +28 +28 жарко 1011.7 938.3
11 21.06 ЮЗ 1-2
{3}
н/о н/о +26.6 +13.7 45 +29 +29 жарко 1011.3 938.2
12 21.06 Ю 1-2
{3}
н/о н/о +27.5 +13.1 41 +29 +29 жарко 1010.7 937.9
13 21.06 ЮЗ 1-3
{3}
н/о н/о +29.0 +13.3 38 +31 +31 жарко 1010.0 937.6
14 21.06 ЮЗ 1-4
{4}
н/о н/о +29.3 +13.1 37 +31 +31 жарко 1009.9 937.5
16 21.06 З 1-3
{4}
н/о н/о +28.2 +12.1 37 +29 +29 жарко 1009.5 936.9
17 21.06 З 1-3
{3}
н/о н/о +28.0 +11.6 36 +29 +29 жарко 1009.5 936.8
18 21.06 СВ 1-2
{3}
н/о н/о +26.9 +11.0 37 +28 +28 жарко 1010.0 937.0 +29.5
19 21.06 С 1-3
{3}
н/о н/о +26.3 +11.7 40 +28 +28 жарко 1010.7 937.5
20 21.06 С 2-3
{4}
н/о н/о +24.8 +10.3 40 +26 +26 жарко 1011.5 937.9
22 21.06 СВ 2-4
{5}
н/о н/о +22.5 +9.7 44 +24 +24 комфорт 1013.4 939.1
23 21.06 СВ 3-5
{5}
н/о н/о +21.6 +9.8 47 +23 +23 комфорт 1012.9 938.4
00 22.06 СВ 2-5
{5}
н/о н/о +20.4 +9.9 51 +23 +23 комфорт 1014.2 939.3
01 22.06 СВ 2-5
{5}
н/о н/о +19.3 +10.0 55 +21 +21 комфорт 1014.3 939.2
02 22.06 СВ 2-4
{4}
н/о н/о +18.2 +9.8 58 +19 +19 1014.4 939.0
04 22.06 СВ 2-3
{3}
н/о н/о +17.3 +9.4 60 +18 +18 1014.5 938.8
05 22.06 СВ 2-3
{3}
н/о н/о +17.1 +9.6 61 +18 +18 1014.8 939.1
06 22.06 СВ 1 н/о н/о +17.3 +9.7 61 +18 +18 1015.1 939.4 +17.0 +27.1
07 22.06 СВ 2 н/о н/о +17.9 +10.0 60 +19 +19 1015.1 939.6
08 22.06 СВ 1-2
{2}
н/о н/о +20.0 +11.8 59 +23 +23 комфорт 1014.5 939.6
10 22.06 ЮВ 1-2
{3}
н/о н/о +24.8 +14.2 52 +27 +27 жарко 1013.3 939.7
11 22.06 В 1-2
{3}
н/о н/о +26.8 +14.9 48 +29 +29 жарко 1012.2 939.1
12 22.06 ЮВ 1-3
{3}
н/о н/о +29.3 +15.4 43 +32 +32 душно 1011.0 938.6
13 22.06 ЮЗ 1-3
{3}
н/о н/о +30.2 +13.9 37 +32 +32 жарко 1010.2 938.0
14 22.06 ЮЗ 1-4
{4}
н/о н/о +31.1 +13.9 35 +33 +33 душно 1009.2 937.3
16 22.06 ЮЗ 1-3
{3}
н/о н/о +30.4 +12.7 34 +31 +31 жарко 1008.3 936.3
17 22.06 З 2-3
{3}
н/о н/о +29.8 +12.2 34 +31 +31 жарко 1008.0 935.9
18 22.06 ЮЗ 2-3
{4}
н/о н/о +29.3 +11.8 34 +30 +30 жарко 1008.0 935.7 +31.1
19 22.06 З 1-2
{2}
н/о н/о +28.0 +11.1 35 +29 +29 жарко 1008.2 935.6
20 22.06 З 1-2
{2}
н/о н/о +26.1 +10.3 37 +27 +27 жарко 1008.9 935.8
22 22.06 З 1-1
{2}
н/о н/о +23.5 +9.2 40 +24 +24 комфорт 1010.0 936.2
23 22.06 штиль 0-1
{1}
н/о н/о +23.1 +9.2 41 +25 +25 комфорт 1010.0 936.1
00 23.06 штиль 0-1
{1}
н/о н/о +22.3 +9.0 43 +24 +24 комфорт 1010.1 936.0
01 23.06 ЮВ 1-1
{3}
н/о н/о +22.1 +9.3 44 +24 +24 комфорт 1010.0 935.8
02 23.06 ЮВ 1-2
{3}
н/о н/о +22.3 +11.3 50 +24 +24 комфорт 1010.0 935.9
04 23.06 штиль 0-1
{1}
н/о н/о +19.0 +11.1 60 +20 +20 1010.7 935.8
05 23.06 штиль 0
{1}
н/о н/о +18.5 +11.1 62 +19 +19 1011.3 936.2
06 23.06 В 1 н/о н/о +19.2 +12.0 63 +22 +22 комфорт 1011.4 936.5 +18.5 +29.3
07 23.06 В 1-2
{2}
н/о н/о +21.2 +12.6 58 +23 +23 комфорт 1011.4 937.0
08 23.06 В 1-2
{2}
н/о н/о +23.4 +13.6 54 +27 +27 душно 1011.3 937.5
10 23.06 ЮВ 1-2
{3}
н/о н/о +27.9 +13.5 41 +30 +30 жарко 1010.4 937.7
11 23.06 ЮВ 1-3
{3}
н/о н/о +29.0 +12.4 36 +30 +30 жарко 1010.5 938.0
12 23.06 ЮЗ 2-3
{3}
н/о н/о +30.8 +12.2 32 +31 +31 жарко 1009.5 937.5
13 23.06 З 1-3
{4}
н/о н/о +32.0 +12.7 31 +33 +33 жарко 1008.7 937.0
14 23.06 ЮЗ 1-3
{4}
н/о н/о +31.9 +12.2 30 +32 +32 жарко 1008.3 936.6
16 23.06 З 1-2
{4}
н/о н/о +31.1 +13.4 34 +32 +32 жарко 1006.9 935.2
17 23.06 З 1-2
{2}
н/о н/о +30.8 +13.2 34 +32 +32 жарко 1006.6 934.8
18 23.06 Ю 1-2
{3}
н/о н/о +30.4 +12.7 34 +31 +31 жарко 1006.5 934.6 +33.0
19 23.06 СЗ 1-2
{2}
н/о н/о +29.1 +12.1 35 +30 +30 жарко 1006.7 934.5
20 23.06 З 1-2
{2}
н/о н/о +28.1 +11.2 35 +29 +29 жарко 1007.1 934.6
22 23.06 штиль 0-1
{2}
н/о н/о +25.8 +10.4 38 +27 +27 жарко 1009.0 935.8
23 23.06 Ю 1-2
{2}
н/о н/о +24.4 +9.9 40 +25 +25 комфорт 1009.7 936.1
00 24.06 Ю 2-3
{3}
н/о н/о +25.3 +10.3 39 +26 +26 жарко 1009.9 936.5
01 24.06 Ю 2-3
{4}
н/о н/о +24.6 +10.0 40 +26 +26 жарко 1010.3 936.7
02 24.06 ЮВ 2-3
{5}
н/о н/о +23.3 +9.7 42 +25 +25 комфорт 1010.4 936.5
04 24.06 ЮВ 1-2
{3}
н/о н/о +21.8 +8.7 43 +23 +23 комфорт 1010.8 936.5
05 24.06 В 1-2
{2}
н/о н/о +21.0 +8.7 45 +24 +24 комфорт 1011.2 936.7
06 24.06 В 1 н/о н/о +20.9 +8.8 46 +23 +23 комфорт 1011.1 936.6 +20.9 +30.4
07 24.06 В 1-2
{2}
н/о н/о +21.4 +9.3 46 +23 +23 комфорт 1011.2 936.8
08 24.06 Ю 1-2
{2}
н/о н/о +23.1 +10.5 45 +25 +25 комфорт 1011.6 937.6

 

Местоположение метеостанции Мадрид Буэн-Ретиро (Испания): широта 40.41 долгота -3.68 высота над уровнем моря 667 м.

В архиве по умолчанию представлена погода в Мадриде Буэн-Ретиро за последнюю неделю. Архивные данные за месяц целиком и за предыдущие месяцы, начиная с января 2011 года, Вы можете получить, выбрав интересующий диапазон дат из раскрывающегося списка и нажав кнопку "Ввод!".


*Определитесь, кто Вы:
робот инопланетянин человек

Внимание! Время в таблицах - всемирное. Для получения местного времени необходимо прибавить поправку, которая равна 1 ч.

Смотрите также архив погоды в соседних городах и на ближайших метеорологических станциях:

Погода в Мадриде университет (Испания) (6 км)
Погода в Мадриде (Испания) (12 км)
Погода в Мадрид аэропорту (Испания) (13 км)
Погода в Мадриде Кольменар (Испания) (33 км)
Погода в Аранхуэсе (Испания) (40 км)
Погода в Робледо-де-Чавеле (Испания) (48 км)
Погода в Навасерраде (Испания) (50 км)
Погода в Гвадалахаре (Испания) (51 км)
Погода в Альто-де-лос-Леоне (Испания) (51 км)
Погода в Толедо (Испания) (67 км)

Пояснения к столбцам:

Ветер - указаны скорость ветра в м/с - средняя за 10 мин, порывы в срок и между сроками (в фигурных скобках) и направление, откуда дует ветер: С - северный, СВ - северо-восточный, В - восточный, ЮВ - юго-восточный, Ю - южный, ЮЗ - юго-западный, З - западный, СЗ - северо-западный.
Видимость - горизонтальная дальность видимости в метрах или километрах. При видимости от 1 до 10 км при отсутствии осадков обычно наблюдается дымка, при ухудшении видимости до 1 км и менее - туман. В сухую погоду видимость может ухудшаться дымом, пылью или мглою.
Явления - указаны атмосферные явления, наблюдавшиеся в срок или в последний час перед сроком; фигурными скобками обозначены явления, наблюдавшиеся между сроками (за 1-3 часа до срока); квадратными скобками обозначены град или гололедные отложения с указанием их диаметра в мм.
Облачность - указаны через наклонную черту общая и нижняя облачность в баллах и высота нижней границы облаков в метрах; квадратными скобками обозначены формы облаков: Ci - перистые, Cs - перисто-слоистые, Cc - перисто-кучевые, Ac - высококучевые, As - высокослоистые, Sc - слоисто-кучевые, Ns - слоисто-дождевые, Cu - кучевые, Cb - кучево-дождевые. Подробнее классификацию облаков см. в Атласе облаков (PDF).
T - Температура воздуха - температура, измеренная на высоте 2 м над землей.
Td - Температура точки росы - температура, при понижении до которой содержащийся в воздухе водяной пар достигнет насыщения.
f - Относительная влажность воздуха - влажноcть воздуха, измеренная на высоте 2 м над землей.
Te - Эффективная температура - температура, которую ощущает одетый по сезону человек в тени. Характеристика душности погоды. При расчете учитывается влияние влажности воздуха и скорости ветра на теплоощущения человека.
Tes - Эффективная температура на солнце - температура, которую ощущает человек, с поправкой на солнечный нагрев. Характеристика знойности погоды. Зависит от высоты солнца над горизонтом, облачности и скорости ветра. Ночью, в пасмурную погоду, а также при ветре 12 м/с и более поправка равна нулю.
P - Атмосферное давление - приведенное к уровню моря атмосферное давление.
Po - Атмосферное давление - измеренное на уровне метеостанции атмосферное давление.
Tmin - Минимальная температура - минимум температуры воздуха на высоте 2 м над землей.
Tmax - Максимальная температура - максимум температуры воздуха на высоте 2 м над землей.
R - Количество осадков - Количество выпавших осадков за период времени, мм. При наведении курсора мыши на число - период времени, за который выпало указанное количество осадков.
R24 - Количество осадков - Количество выпавших осадков за 24 часа, мм.
S - Снежный покров - Высота снежного покрова, см. При наведении курсора мыши на число - состояние снежного покрова и степень покрытия местности в баллах.